Temp
61 59 55 60 60 61 58 55 57 61 65 61 59 60 61 63 63 64 64 67 67 70 76 77 76 76 73 71 69 69 68 67 67 66 66 67 68 69 71 71 72 72 71 73
59 54 64 66 64 62 59 57 57 62 66 62 60 59 63 63 63 65 66 66 68 69 70 72 73 75 73 71 70 69 69 67 68 67 68 69 69 70 72 72 71 71 71 72
55 63 68 67 63 60 56 56 58 60 63 65 60 56 59 63 65 66 67 70 70 69 69 69 71 73 74 71 70 70 70 69 69 68 69 70 70 70 70 70 71 70 72 72
59 65 67 62 62 62 52 65 66 62 56 49 59 45 55 58 60 65 68 69 70 70 70 69 70 71 73 74 74 72 70 70 70 69 69 70 69 68 70 72 72 71 72 73
61 62 61 60 64 65 62 67 64 62 55 50 52 48 52 55 55 60 66 69 71 74 72 69 71 73 75 76 74 74 70 70 71 70 70 71 69 70 72 72 71 71 72 73
63 67 67 67 69 68 68 61 58 54 50 44 50 51 51 52 58 61 65 69 72 72 72 72 73 75 73 75 74 73 70 70 71 71 70 70 70 70 70 70 70 71 71 72
60 63 66 69 61 61 60 51 41 41 41 42 47 49 54 63 64 65 64 67 72 74 74 69 70 72 73 72 73 73 70 70 71 71 71 71 70 70 70 71 71 70 71 72
51 52 63 68 66 61 55 54 45 39 38 44 50 47 57 67 69 68 69 70 72 73 73 71 71 74 75 74 72 74 70 70 71 71 71 72 71 70 70 71 72 72 73 74
49 54 65 69 67 68 55 51 54 44 40 42 47 54 63 67 64 66 66 67 69 72 72 72 73 73 74 74 73 74 72 70 71 72 72 72 73 71 72 71 72 74 73 76
60 55 62 68 68 64 62 61 51 44 39 37 44 47 51 63 61 63 65 65 67 70 72 73 73 74 75 76 75 75 74 72 71 71 72 74 74 73 73 72 71 72 74 74
60 58 62 62 60 59 57 52 48 48 44 41 40 46 58 61 63 62 65 67 66 68 71 73 72 73 74 74 73 75 72 72 71 72 71 73 74 73 73 73 72 72 72 73
62 56 58 60 61 65 60 57 52 48 45 42 44 49 63 64 65 67 66 66 67 69 69 70 69 69 69 70 71 71 71 70 71 72 71 73 74 74 73 73 72 72 72 73
62 54 49 55 56 58 59 57 54 49 46 43 45 50 63 63 65 68 66 66 66 67 68 69 69 67 67 69 69 70 71 71 71 70 71 71 73 73 74 73 74 72 73 73
67 52 54 54 58 60 55 59 54 54 47 46 47 54 61 64 64 67 67 66 67 67 67 65 65 66 66 67 67 68 69 70 69 69 70 71 71 72 72 72 71 71 71 72
61 54 54 60 62 64 61 60 57 55 54 54 57 54 62 64 64 66 69 67 66 65 65 65 64 65 66 66 67 68 68 69 69 68 69 69 71 72 72 71 71 71 70 71
59 54 53 58 62 62 60 63 60 59 58 57 58 58 65 64 65 65 67 67 66 65 67 66 66 66 66 67 67 68 69 69 69 68 68 68 68 69 71 71 72 71 70 70
52 51 48 48 55 57 52 60 60 60 59 60 56 64 65 63 65 66 65 67 67 67 68 67 67 66 65 66 67 67 67 69 69 69 69 70 69 69 70 71 71 70 69 69
53 49 46 46 48 43 59 62 66 65 64 63 63 65 66 67 67 67 67 68 67 68 68 67 66 66 65 65 65 65 66 67 67 67 67 69 69 69 69 69 69 70 69 69
55 49 47 45 42 51 58 62 61 62 61 65 65 67 67 67 67 67 69 71 70 71 70 69 67 65 64 64 64 64 65 68 67 67 67 67 68 67 67 68 67 68 68 67
50 50 52 42 41 42 55 64 63 63 54 60 64 65 65 65 59 68 68 70 70 71 69 66 66 64 64 63 63 63 63 63 63 64 66 65 67 67 67 67 67 67 67 68
46 45 47 44 43 49 57 60 61 54 53 58 61 62 63 63 64 66 69 69 70 69 67 66 65 64 64 62 63 62 62 63 64 65 65 65 65 65 66 66 67 66 66 65
46 42 42 43 42 43 58 59 56 53 56 58 59 60 60 62 64 68 68 67 67 65 65 67 64 63 63 63 63 62 63 64 65 67 67 66 66 66 67 66 65 66 66 64
43 47 44 47 48 54 56 55 58 57 56 58 58 60 60 61 63 68 67 67 67 66 66 67 65 63 63 63 64 63 64 65 66 65 66 66 66 65 66 66 66 65 65 63
48 48 45 48 51 54 59 59 60 60 58 60 61 61 62 61 65 66 67 66 65 66 65 66 65 63 62 64 65 65 66 65 65 64 64 64 62 61 61 61 62 64 63 63
47 48 46 47 51 53 57 60 60 60 61 61 62 63 63 62 65 65 64 65 66 66 66 66 64 64 63 64 64 66 64 64 63 63 63 62 61 59 56 52 52 57 53 54
48 48 44 44 52 52 54 58 61 60 60 60 60 61 63 64 65 66 63 65 66 66 65 64 64 64 63 64 64 64 64 64 63 61 62 61 60 58 57 57 55 48 47 45
MSLP
1009.38 1010.17 1010.42 1010.61 1011.00 1011.16 1011.59 1011.88 1011.82 1011.50 1011.42 1011.88 1012.20 1012.30 1012.48 1012.58 1012.73 1012.67 1012.69 1012.60 1012.51 1012.04 1011.86 1012.44 1012.96 1013.80 1014.61 1015.28 1015.83 1016.21 1016.67 1017.16 1017.70 1018.10 1018.49 1018.80 1018.75 1018.81 1018.74 1018.57 1018.70 1018.89 1019.22 1019.27
1009.94 1009.97 1009.77 1010.14 1010.58 1010.91 1011.26 1011.46 1011.43 1011.25 1011.33 1012.21 1012.39 1012.38 1012.28 1012.32 1011.92 1011.82 1012.14 1012.39 1012.08 1011.83 1011.75 1012.11 1012.77 1013.45 1013.96 1014.74 1015.36 1015.92 1016.14 1016.57 1017.16 1017.57 1017.75 1017.82 1018.23 1018.35 1018.33 1018.29 1018.53 1018.69 1019.00 1019.14
1009.90 1009.23 1009.04 1009.62 1010.18 1010.63 1010.71 1010.89 1010.89 1011.10 1011.52 1012.19 1012.62 1012.36 1011.93 1011.67 1011.54 1011.42 1011.39 1011.54 1011.52 1011.53 1011.55 1012.00 1012.52 1012.87 1013.61 1014.23 1014.63 1015.17 1015.63 1016.13 1016.60 1017.01 1017.45 1017.65 1017.93 1018.16 1018.44 1018.44 1018.30 1018.44 1018.76 1019.02
1009.67 1008.77 1008.93 1009.21 1009.54 1009.95 1010.04 1009.56 1009.95 1010.85 1011.86 1012.46 1012.41 1012.49 1011.50 1011.10 1010.90 1010.62 1010.44 1010.63 1010.73 1010.99 1011.33 1011.67 1012.07 1012.61 1013.06 1013.39 1014.12 1014.59 1015.38 1015.85 1016.22 1016.64 1017.05 1017.26 1017.50 1017.86 1017.80 1017.88 1017.85 1018.14 1018.42 1018.62
1008.64 1008.43 1008.56 1008.79 1008.54 1008.99 1008.81 1009.06 1009.97 1011.07 1012.15 1012.84 1012.95 1012.93 1010.99 1010.80 1010.52 1009.73 1009.43 1009.37 1009.61 1010.08 1010.49 1011.15 1011.45 1011.74 1012.34 1013.16 1013.42 1013.88 1014.86 1015.53 1015.78 1016.23 1016.52 1016.97 1017.31 1017.43 1017.48 1017.67 1017.93 1018.03 1018.18 1018.39
1008.15 1007.64 1007.53 1007.29 1007.47 1007.87 1008.48 1009.84 1011.07 1012.33 1013.18 1013.47 1012.33 1012.64 1010.56 1010.09 1008.45 1008.00 1008.28 1008.18 1008.40 1009.19 1009.78 1010.19 1010.71 1011.37 1011.93 1012.67 1013.31 1013.82 1014.35 1014.98 1015.49 1015.64 1016.11 1016.54 1016.94 1017.11 1017.41 1017.71 1017.94 1018.08 1018.33 1018.57
1007.79 1007.14 1006.66 1006.52 1007.22 1007.85 1008.71 1010.41 1012.43 1013.76 1014.34 1013.60 1012.44 1012.29 1009.61 1007.59 1007.16 1006.77 1006.81 1007.01 1007.55 1007.99 1008.82 1009.69 1010.28 1010.82 1011.48 1011.98 1012.55 1013.27 1014.21 1014.51 1015.04 1015.53 1015.63 1016.09 1016.55 1016.77 1016.93 1017.06 1017.37 1017.80 1017.96 1018.18
1007.95 1006.72 1005.96 1005.71 1006.09 1006.91 1008.51 1009.66 1011.56 1012.94 1013.93 1013.39 1012.56 1010.97 1007.92 1006.35 1006.00 1006.08 1006.21 1006.50 1007.25 1007.65 1008.29 1009.00 1009.46 1009.97 1010.48 1011.15 1011.90 1012.74 1013.66 1014.16 1014.40 1014.65 1015.02 1015.43 1015.94 1016.29 1016.54 1016.68 1016.94 1017.11 1017.30 1017.28
1007.67 1006.55 1005.22 1004.92 1005.14 1005.91 1008.10 1009.46 1010.06 1012.32 1013.75 1013.36 1011.92 1009.84 1007.16 1005.97 1006.04 1006.10 1006.17 1006.51 1006.91 1007.31 1007.62 1008.11 1008.82 1009.43 1010.03 1010.56 1011.23 1011.95 1012.81 1013.17 1013.71 1013.92 1014.37 1014.83 1015.26 1015.77 1016.01 1016.30 1016.62 1016.86 1016.84 1016.88
1006.69 1006.47 1005.38 1004.95 1005.13 1006.00 1006.63 1008.12 1010.09 1011.87 1013.19 1013.32 1011.70 1010.26 1007.93 1006.14 1006.39 1006.41 1006.28 1006.43 1006.88 1007.12 1007.49 1007.96 1008.43 1008.92 1009.44 1009.82 1010.62 1011.27 1011.76 1012.29 1012.71 1013.44 1013.81 1014.19 1014.62 1015.03 1015.45 1015.87 1016.34 1016.52 1016.57 1016.61
1006.44 1006.71 1005.43 1005.29 1005.28 1005.72 1006.99 1007.82 1009.55 1011.03 1011.89 1012.37 1011.62 1009.83 1006.61 1006.01 1005.93 1006.02 1006.21 1006.39 1006.49 1006.84 1007.15 1007.52 1008.05 1008.58 1009.01 1009.46 1010.10 1010.68 1011.35 1011.94 1012.44 1012.89 1013.34 1013.71 1014.05 1014.50 1014.90 1015.37 1015.68 1016.12 1016.35 1016.25
1006.04 1006.61 1006.15 1005.35 1004.82 1005.03 1005.64 1006.59 1008.06 1010.26 1011.65 1011.70 1010.73 1008.17 1005.89 1005.41 1005.33 1005.51 1005.91 1006.29 1006.43 1006.57 1007.00 1007.47 1008.01 1008.55 1008.97 1009.46 1009.94 1010.24 1010.90 1011.32 1011.57 1012.13 1012.67 1012.83 1013.28 1013.96 1014.37 1014.72 1015.02 1015.23 1015.61 1015.70
1005.95 1006.42 1006.43 1005.48 1005.14 1005.12 1005.44 1006.08 1006.97 1008.31 1009.52 1010.52 1010.10 1007.44 1005.55 1005.02 1004.87 1005.18 1005.62 1006.20 1006.27 1006.60 1006.98 1007.35 1008.00 1008.47 1008.99 1009.47 1009.93 1010.25 1010.48 1010.63 1011.21 1011.77 1012.16 1012.49 1012.76 1013.40 1013.63 1013.98 1014.22 1014.57 1015.03 1015.26
1005.11 1006.08 1005.97 1005.21 1004.33 1004.31 1004.99 1005.47 1006.28 1007.08 1008.70 1009.06 1008.32 1006.78 1005.26 1004.72 1004.56 1004.96 1005.44 1005.92 1006.12 1006.73 1007.12 1007.51 1008.07 1008.51 1008.85 1009.26 1009.73 1010.08 1010.31 1010.61 1011.05 1011.47 1011.83 1012.15 1012.29 1012.56 1012.84 1013.29 1013.63 1013.97 1014.28 1014.62
1005.63 1006.23 1005.84 1004.86 1004.25 1004.06 1004.07 1004.49 1005.31 1006.10 1006.24 1006.90 1006.28 1006.29 1004.70 1004.03 1003.97 1004.42 1004.92 1005.66 1006.24 1006.63 1007.20 1007.62 1007.95 1008.23 1008.66 1009.04 1009.32 1009.67 1010.01 1010.40 1010.65 1011.04 1011.39 1011.48 1011.91 1011.99 1012.34 1012.70 1012.89 1013.21 1013.23 1013.63
1006.34 1006.26 1006.01 1005.32 1004.31 1004.25 1003.96 1003.55 1004.15 1004.76 1005.12 1005.28 1005.05 1004.93 1003.55 1003.50 1003.64 1004.01 1004.60 1005.24 1006.06 1006.39 1006.66 1007.37 1007.63 1008.07 1008.58 1009.04 1009.34 1009.55 1009.76 1010.00 1010.29 1010.58 1010.86 1011.27 1011.52 1011.69 1011.78 1012.08 1012.11 1012.34 1012.59 1013.13
1007.22 1006.99 1006.86 1006.10 1005.08 1004.78 1004.44 1003.30 1003.05 1003.94 1003.99 1003.95 1004.44 1003.48 1003.11 1003.38 1003.43 1003.09 1003.78 1004.41 1005.00 1005.81 1006.11 1006.62 1007.15 1007.81 1008.30 1009.03 1009.45 1009.66 1009.74 1009.79 1010.09 1010.36 1010.66 1010.90 1011.05 1011.14 1011.33 1011.53 1011.72 1011.97 1012.44 1012.79
1007.54 1007.60 1007.57 1006.85 1005.84 1004.79 1002.95 1002.48 1002.02 1002.44 1002.68 1003.05 1002.99 1002.78 1002.62 1002.39 1002.39 1002.78 1003.05 1003.73 1004.44 1004.92 1005.73 1006.40 1006.77 1007.46 1008.28 1009.22 1009.64 1009.80 1009.69 1009.93 1010.23 1010.34 1010.44 1010.59 1010.65 1010.87 1010.92 1011.09 1011.44 1011.76 1012.09 1012.52
1007.36 1007.54 1007.95 1007.77 1006.72 1005.01 1003.04 1002.77 1002.84 1002.68 1002.81 1002.65 1002.66 1002.58 1002.39 1002.68 1002.91 1002.45 1002.44 1002.85 1003.47 1004.07 1004.96 1005.63 1006.60 1007.38 1008.55 1009.32 1009.43 1009.71 1009.79 1010.03 1010.28 1010.46 1010.71 1010.80 1010.72 1010.86 1010.98 1011.05 1011.40 1011.76 1012.18 1012.51
1007.32 1007.38 1007.71 1008.33 1007.34 1005.49 1003.84 1003.03 1002.96 1002.76 1003.42 1003.62 1003.19 1003.13 1003.23 1003.35 1003.60 1001.89 1001.83 1002.52 1003.48 1004.21 1004.95 1005.99 1006.89 1007.81 1009.01 1009.19 1009.58 1009.92 1010.27 1010.49 1010.66 1010.80 1010.94 1011.09 1011.04 1011.07 1011.18 1011.29 1011.45 1011.68 1012.03 1012.28
1007.93 1008.19 1007.96 1007.71 1006.91 1005.56 1004.30 1003.95 1003.53 1004.24 1005.15 1004.52 1004.29 1003.82 1003.36 1003.34 1002.89 1002.52 1001.82 1002.36 1003.15 1003.87 1004.95 1005.97 1006.74 1007.78 1008.26 1008.90 1009.39 1009.95 1010.41 1010.66 1010.83 1010.94 1011.05 1011.18 1011.23 1011.30 1011.36 1011.50 1011.66 1011.80 1012.02 1012.32
1008.03 1008.29 1008.22 1007.69 1007.01 1006.02 1004.89 1004.41 1004.83 1005.57 1005.27 1005.07 1005.10 1004.78 1004.13 1003.36 1002.67 1002.57 1002.65 1002.58 1002.97 1004.05 1005.24 1005.57 1006.96 1008.13 1008.39 1008.55 1009.10 1009.93 1010.36 1010.57 1010.71 1010.91 1011.01 1011.21 1011.37 1011.41 1011.46 1011.63 1011.87 1011.98 1012.20 1012.64
1008.54 1008.07 1007.88 1007.60 1006.55 1005.91 1005.55 1005.54 1005.54 1005.71 1005.75 1005.41 1005.35 1004.87 1004.52 1003.78 1002.86 1002.54 1002.27 1002.92 1002.78 1003.74 1004.78 1005.84 1007.22 1007.90 1008.28 1008.65 1009.11 1009.77 1010.15 1010.42 1010.66 1010.87 1011.03 1011.21 1011.34 1011.55 1011.62 1011.78 1011.99 1012.20 1012.49 1012.88
1008.41 1008.18 1008.10 1007.57 1006.85 1006.09 1005.69 1005.74 1005.61 1005.78 1005.79 1005.55 1005.36 1005.12 1004.60 1003.91 1002.91 1002.29 1002.13 1002.68 1003.34 1003.61 1004.47 1005.73 1006.98 1007.47 1008.08 1008.69 1009.16 1009.55 1010.15 1010.49 1010.83 1011.18 1011.31 1011.63 1011.86 1012.08 1012.28 1012.37 1012.44 1012.76 1012.99 1013.15
1008.59 1008.30 1008.09 1007.58 1006.76 1006.26 1005.71 1005.49 1005.39 1005.59 1005.50 1005.20 1004.67 1004.39 1004.12 1003.48 1002.66 1002.20 1002.22 1002.76 1002.91 1003.82 1003.87 1005.24 1006.36 1006.76 1007.62 1008.32 1009.00 1009.38 1009.89 1010.42 1010.92 1011.26 1011.48 1011.89 1012.30 1012.60 1012.95 1013.46 1013.74 1013.70 1013.88 1013.89
1008.25 1007.72 1007.86 1007.27 1006.44 1006.43 1005.84 1005.22 1005.12 1005.12 1005.08 1004.96 1004.73 1004.13 1003.63 1003.49 1002.83 1002.42 1002.61 1002.91 1003.29 1003.67 1003.96 1005.01 1005.97 1006.56 1007.60 1008.24 1008.99 1009.41 1009.81 1010.33 1010.78 1011.21 1011.58 1012.02 1012.50 1013.00 1013.38 1013.75 1014.11 1014.21 1014.16 1014.02
Wind_Speed
1 4 6 10 7 4 4 3 5 3 4 4 8 6 9 11 7 8 8 8 8 12 15 15 13 12 9 9 10 10 9 7 6 3 3 2 3 2 2 3 5 4 4 4
5 5 9 3 4 4 4 4 4 3 3 3 4 11 6 11 13 14 12 11 11 6 6 9 11 12 13 11 10 9 10 8 7 3 3 3 3 3 2 2 3 4 5 5
7 6 5 7 4 4 4 5 5 4 4 4 2 6 7 7 10 10 11 11 9 10 11 9 12 14 11 12 13 13 11 9 8 7 3 2 3 2 2 2 2 4 5 5
6 5 4 3 5 7 7 10 8 8 6 4 1 6 5 7 13 15 15 14 13 9 5 6 10 11 13 15 10 11 10 10 8 8 6 5 4 4 3 3 3 4 6 5
10 7 5 4 9 7 12 6 7 4 4 3 2 1 8 3 8 16 16 17 16 12 14 10 12 14 13 11 12 12 9 9 8 10 8 6 4 3 2 2 3 2 2 3
7 3 7 10 6 10 4 8 10 7 4 3 6 6 8 5 9 8 14 17 19 15 13 10 11 12 11 8 9 8 10 10 10 10 10 10 9 6 4 4 4 3 3 3
5 6 5 5 4 3 6 7 4 4 2 8 2 4 12 7 8 9 17 18 17 16 14 9 12 13 13 13 13 11 8 11 10 9 9 10 9 7 7 6 5 5 4 3
4 6 9 6 9 8 7 9 8 8 5 6 3 6 10 6 4 6 6 12 14 15 11 13 15 15 16 16 15 15 15 13 11 12 12 10 9 6 5 5 4 4 4 5
4 7 3 5 4 10 5 4 5 9 4 2 4 9 12 5 1 2 6 7 14 15 14 15 13 14 14 14 16 17 18 15 13 13 11 11 10 8 8 7 5 5 5 5
6 6 4 0 4 3 8 9 4 3 4 4 6 5 8 13 4 4 5 8 9 11 11 9 12 14 13 13 13 16 14 17 16 13 11 11 11 9 8 6 8 8 8 7
6 4 9 2 5 9 3 2 7 6 5 7 3 8 8 10 7 10 8 6 8 10 11 11 8 10 10 9 11 14 11 13 12 14 12 12 10 9 9 8 8 8 6 6
7 5 9 13 1 3 4 6 7 7 5 1 4 9 2 7 6 8 9 9 7 7 8 7 8 9 9 9 10 12 11 11 12 11 10 11 8 7 9 9 9 9 9 6
7 4 1 10 6 1 5 6 5 6 5 7 7 9 2 6 2 6 9 7 7 7 6 6 7 9 9 8 9 10 10 11 8 8 9 9 9 8 10 10 9 9 8 9
8 5 8 9 9 5 5 6 5 7 5 6 8 6 7 5 7 6 7 9 8 7 6 5 5 7 7 8 9 8 8 6 6 8 9 10 11 12 11 6 6 6 6 8
5 6 5 7 6 5 8 6 10 7 7 8 8 9 10 9 9 5 6 7 7 8 7 6 6 6 5 6 6 5 6 7 8 9 10 12 9 10 8 9 10 10 9 8
3 3 4 5 3 7 5 8 9 3 4 1 5 6 8 2 5 5 8 9 9 8 10 8 7 7 7 6 5 4 3 5 7 9 10 8 8 9 10 11 12 8 6 6
1 1 2 6 1 0 7 10 11 6 4 8 6 12 3 4 8 11 11 13 14 13 11 10 10 8 6 5 4 4 4 3 4 4 4 5 7 9 10 8 9 10 10 7
3 2 1 4 1 7 7 5 9 12 7 8 3 6 8 9 5 3 5 11 13 15 12 9 7 6 6 4 5 4 4 5 5 4 4 3 1 4 5 7 9 10 8 9
9 5 1 3 4 6 3 3 5 9 9 8 7 5 6 0 3 7 8 12 17 17 12 11 8 7 5 5 5 5 6 7 6 5 4 3 2 4 4 4 5 3 4 3
5 2 6 4 4 8 8 2 5 3 2 4 1 4 3 5 3 11 11 10 10 11 12 12 12 9 9 7 6 7 6 5 5 4 5 4 4 3 3 3 4 2 2 3
2 1 8 6 6 7 3 8 5 6 6 3 6 5 6 7 4 7 9 10 10 13 14 12 12 11 10 10 8 8 6 6 5 5 5 5 5 5 4 4 2 3 4 3
6 6 5 3 3 6 5 1 1 2 4 0 1 5 6 7 9 2 4 12 14 13 12 13 11 9 8 9 8 7 6 5 5 5 6 6 5 3 3 4 2 2 3 4
3 4 3 6 3 2 2 1 4 2 2 4 4 5 6 10 8 7 8 10 15 16 14 12 12 10 7 7 6 6 4 5 6 5 5 5 5 5 4 4 3 2 3 2
4 3 2 2 2 4 2 4 3 3 4 6 5 7 6 7 9 7 6 9 11 15 16 13 13 12 10 7 6 5 7 5 5 5 6 5 4 4 5 4 3 2 2 2
5 1 2 4 6 6 2 3 1 2 5 6 6 4 8 7 6 4 6 9 11 12 16 15 14 12 10 8 6 8 8 7 6 5 5 6 4 4 5 5 4 3 3 2
4 6 4 6 6 3 7 3 2 4 5 5 5 9 8 5 6 3 4 5 9 14 15 13 12 12 8 8 7 7 7 6 6 5 4 4 4 3 3 3 2 7 5 7
Wind_Direction
17 99 192 204 188 164 117 200 250 228 194 155 208 214 193 202 220 231 226 227 233 215 216 205 192 175 159 163 164 182 182 179 159 151 155 172 199 187 241 216 225 216 180 203
29 228 228 175 167 205 204 212 247 281 164 149 240 244 241 191 218 214 221 218 230 205 182 174 171 179 175 172 175 180 204 175 178 170 170 157 161 187 194 194 214 208 178 194
164 225 173 170 168 195 233 192 199 209 108 220 199 261 207 211 222 220 221 224 226 213 188 177 171 182 181 178 185 185 200 200 181 170 146 105 99 102 144 216 209 192 182 189
226 259 186 185 235 152 271 202 208 160 123 219 208 277 271 208 220 218 218 217 219 206 192 186 173 177 191 199 187 178 186 202 190 170 173 171 173 168 196 192 223 168 177 195
239 174 159 172 221 158 241 174 192 134 119 72 257 27 266 128 243 226 217 218 214 204 188 188 188 189 200 190 191 187 173 200 198 183 189 190 178 209 161 160 207 207 180 201
237 221 166 206 195 188 127 68 45 49 56 323 212 162 281 194 213 211 212 214 211 199 190 192 190 192 190 185 180 179 175 196 205 188 189 188 197 188 179 173 187 209 186 196
314 222 223 167 165 128 83 74 20 5 24 230 146 119 242 243 232 219 205 208 208 197 194 169 174 193 189 186 183 178 169 206 195 206 194 197 205 197 195 192 188 177 204 195
199 316 172 190 186 178 179 152 159 200 199 250 203 234 250 223 225 216 209 209 196 199 183 181 186 195 194 190 183 172 189 208 205 199 206 204 204 200 195 195 198 203 198 218
167 272 267 206 150 135 188 155 179 103 5 69 240 293 307 259 346 178 193 158 187 195 195 187 184 188 193 192 187 178 194 212 202 203 204 208 207 199 198 196 193 211 210 217
214 297 230 263 98 61 163 155 80 11 134 232 288 271 246 280 199 219 180 191 187 190 194 192 190 190 198 197 189 194 192 194 200 198 199 208 207 200 202 184 196 200 218 224
140 144 261 354 202 181 146 172 53 117 128 162 236 268 222 254 195 197 197 203 185 189 197 194 189 189 191 188 180 195 189 184 188 194 197 205 207 194 198 200 202 205 219 199
205 166 243 232 162 175 193 175 136 124 224 180 162 272 251 257 236 181 194 184 200 187 185 182 159 163 172 183 188 193 185 188 194 190 191 197 202 190 200 205 201 196 207 209
177 225 303 323 359 52 207 200 128 108 92 189 143 261 205 279 268 185 162 182 182 193 202 187 164 170 179 181 194 201 199 207 193 182 193 207 215 205 212 204 200 197 204 213
135 167 185 204 208 159 181 190 159 133 126 172 216 261 289 252 255 181 162 174 176 169 184 163 151 173 178 182 192 200 209 193 182 180 195 210 214 210 208 175 168 179 191 217
138 211 188 261 261 192 200 187 166 173 176 160 218 199 247 231 224 196 181 152 153 151 149 153 145 147 156 170 185 194 194 187 182 190 201 219 213 204 189 172 173 180 183 203
350 237 175 273 260 228 252 200 181 164 143 104 133 248 221 297 144 175 175 159 163 173 158 156 140 140 145 159 162 156 164 189 185 197 213 215 198 208 200 195 204 202 218 194
9 87 121 248 328 258 287 206 172 184 183 146 159 224 169 229 234 216 182 177 173 177 172 166 157 158 141 145 131 133 135 127 160 185 209 200 197 205 209 202 204 202 204 188
220 113 120 241 89 211 242 298 184 178 195 198 186 215 204 217 238 349 159 171 176 169 171 168 144 132 130 140 135 133 103 88 82 72 64 66 176 210 196 195 203 211 211 210
207 138 229 194 200 282 250 150 169 166 233 203 205 228 227 342 33 282 189 178 177 181 172 159 151 134 135 161 131 107 89 94 86 75 73 65 118 154 163 170 167 160 172 183
107 84 175 138 209 218 237 60 7 282 229 13 100 256 225 145 177 249 163 157 160 159 153 151 145 134 160 148 141 123 115 109 96 101 87 81 66 100 135 149 150 127 159 176
151 215 198 193 211 280 297 307 303 152 222 360 346 311 167 199 192 308 148 154 152 156 150 143 140 158 157 144 134 117 124 116 128 119 107 89 79 89 101 115 116 134 123 112
187 168 204 119 154 249 355 357 232 233 308 292 320 310 308 293 301 301 246 155 147 146 144 140 133 158 151 133 121 132 137 149 135 117 103 91 79 87 108 131 128 143 146 124
241 195 197 182 223 282 337 115 151 175 271 334 325 297 276 275 278 242 191 185 162 157 146 141 150 145 134 134 132 138 154 143 135 116 98 85 77 59 53 58 76 119 133 146
297 214 184 19 242 269 344 283 169 196 243 271 259 264 263 270 267 238 170 164 161 154 150 146 150 151 146 151 152 139 155 143 133 127 116 99 82 71 49 50 29 63 78 108
215 118 225 267 285 292 247 230 228 240 260 282 286 280 292 301 297 221 166 170 162 166 147 154 159 150 149 150 153 153 150 147 140 137 127 110 103 91 84 62 25 38 65 336
203 197 177 233 221 194 251 263 261 302 306 297 307 318 325 300 281 148 153 162 164 161 150 143 142 133 140 139 147 151 149 150 154 138 126 128 120 110 108 117 104 53 52 57